(134758) = 2000 CZ29 = 2002 RP155

Discovered at Socorro on 2000-02-02 by LINEAR.

Orbit

Orbit type: Main Belt

Note: WebGL enabled browser required.

epoch2023-09-13.0
epoch JD2460200.5
perihelion date2021-09-10.55136
perihelion JD2459468.05136
argument of perihelion (°)186.17731
ascending node (°)318.25031
inclination (°)5.16029
eccentricity0.1614671
perihelion distance (AU)2.2234137
Tisserand w.r.t. Jupiter3.4
ΔV w.r.t. Earth (km/sec)9.5
semimajor axis (AU)2.6515520
mean anomaly (°)167.19789
mean daily motion (°/day)0.22827250
aphelion distance (AU)3.080
period (years)4.32
P-vector [x]-0.81309095
P-vector [y]0.53787595
P-vector [z]0.22264899
Q-vector [x]-0.57904769
Q-vector [y]-0.70793536
Q-vector [z]-0.40439003
absolute magnitude15.64
phase slope0.15
uncertainty0
referenceMPO 777730
observations used983
oppositions16
arc length (days)8672
first opposition used2000
last opposition used2023
residual rms (arc-secs)0.66
perturbers coarse indicatorM-v
perturbers precise indicator003Ek
first observation date used2000-02-02.0
last observation date used2023-10-31.0
computer nameMPCLINUX
JD of orbit computation2456819.628916
perihelion JD uncertainty (days)5.9529E-05
argument of perihelion uncertainty (°)4.6221E-05
ascending node uncertainty (°)4.3480E-05
inclination uncertainty (°)4.5182E-06
eccentricity uncertainty 4.9200E-08
perihelion distance uncertainty (AU)1.2733E-07
Minimum Orbit Intersection Distances (in AU)
for orbit epoch: 2460200.5, reference: E2023-VB5
Mercury1.87186
Venus1.50698
Earth1.23448
Mars0.56662
Jupiter1.93943
Saturn6.52623
Uranus16.1892
Neptune26.9078

Observations

1000 total observations over interval: 2000 02 02.32808 – 2023 10 31.225877
These data are available for download (format description).

Date (UT) J2000 RA J2000 Dec Magn Location Ref
2000 02 02.32808 10 12 51.33 +10 16 46.1 18.5   704 – Lincoln Laboratory ETS, New Mexico MPS 10350
2000 02 02.34207 10 12 50.65 +10 16 46.8 18.4   704 – Lincoln Laboratory ETS, New Mexico MPS 10350
2000 02 02.35605 10 12 49.92 +10 16 47.3 18.5   704 – Lincoln Laboratory ETS, New Mexico MPS 10350
2000 02 02.37018 10 12 49.19 +10 16 48.5 18.5   704 – Lincoln Laboratory ETS, New Mexico MPS 10350
2000 02 02.38418 10 12 48.49 +10 16 49.3 18.5   704 – Lincoln Laboratory ETS, New Mexico MPS 10350
2000 02 04.30366 10 11 13.98 +10 19 06.2 18.3   704 – Lincoln Laboratory ETS, New Mexico MPS 10350
2000 02 04.31812 10 11 13.20 +10 19 06.9 18.7   704 – Lincoln Laboratory ETS, New Mexico MPS 10350
2000 02 04.33251 10 11 12.45 +10 19 08.4 18.5   704 – Lincoln Laboratory ETS, New Mexico MPS 10350
2000 02 04.34685 10 11 11.75 +10 19 09.8 18.6   704 – Lincoln Laboratory ETS, New Mexico MPS 10350
2000 02 04.36119 10 11 10.89 +10 19 10.4 18.6   704 – Lincoln Laboratory ETS, New Mexico MPS 10350
2000 02 29.17429 09 48 14.38 +11 02 14.3 18.6   704 – Lincoln Laboratory ETS, New Mexico MPS 11015
2000 02 29.18857 09 48 13.63 +11 02 16.0 18.9   704 – Lincoln Laboratory ETS, New Mexico MPS 11015
2000 02 29.20193 09 48 12.87 +11 02 16.9 19.1   704 – Lincoln Laboratory ETS, New Mexico MPS 11015
2000 02 29.21531 09 48 12.17 +11 02 18.8 19.2   704 – Lincoln Laboratory ETS, New Mexico MPS 11015
2000 02 29.22869 09 48 11.43 +11 02 19.9 19.2   704 – Lincoln Laboratory ETS, New Mexico MPS 11015
2000 03 03.13297 09 45 45.83 +11 06 45.5 18.5   704 – Lincoln Laboratory ETS, New Mexico MPS 11015
2000 03 03.14629 09 45 45.15 +11 06 47.0 18.5   704 – Lincoln Laboratory ETS, New Mexico MPS 11015
2000 03 03.15962 09 45 44.43 +11 06 48.4 18.1   704 – Lincoln Laboratory ETS, New Mexico MPS 11015
2000 03 03.17295 09 45 43.74 +11 06 50.3 18.1   704 – Lincoln Laboratory ETS, New Mexico MPS 11015
2000 03 03.18629 09 45 43.06 +11 06 51.4 18.0   704 – Lincoln Laboratory ETS, New Mexico MPS 11015
2000 03 05.24269 09 44 05.85 +11 09 38.2 18.3   704 – Lincoln Laboratory ETS, New Mexico MPS 11015
2000 03 05.25598 09 44 05.18 +11 09 39.3 18.7   704 – Lincoln Laboratory ETS, New Mexico MPS 11015
2000 03 05.26927 09 44 04.52 +11 09 40.4 18.4   704 – Lincoln Laboratory ETS, New Mexico MPS 11015
2000 03 05.28256 09 44 03.88 +11 09 41.1 18.5   704 – Lincoln Laboratory ETS, New Mexico MPS 11015
2000 03 05.29587 09 44 03.23 +11 09 42.2 18.1   704 – Lincoln Laboratory ETS, New Mexico MPS 11015
2000 03 11.12756 09 40 01.03 +11 15 48.6 18.8   704 – Lincoln Laboratory ETS, New Mexico MPS 11015
2000 03 11.14052 09 40 00.50 +11 15 48.8 19.0   704 – Lincoln Laboratory ETS, New Mexico MPS 11015
2000 03 11.15379 09 39 59.95 +11 15 49.7 19.0   704 – Lincoln Laboratory ETS, New Mexico MPS 11015
2000 03 11.16650 09 39 59.45 +11 15 50.7 19.1   704 – Lincoln Laboratory ETS, New Mexico MPS 11015
2002 09 11.20069 23 28 35.14 +01 11 43.4 19.8   644 – Palomar Mountain/NEAT MPS 61788
2002 09 11.26661 23 28 31.64 +01 11 26.2 18.9   644 – Palomar Mountain/NEAT MPS 61788
2002 09 11.33460 23 28 28.03 +01 11 10.6 19.2   644 – Palomar Mountain/NEAT MPS 61788
2002 09 14.33050 23 25 52.97 +00 58 39.4 20.0   644 – Palomar Mountain/NEAT MPS 61788
2002 09 14.35135 23 25 51.83 +00 58 34.7 20.2   644 – Palomar Mountain/NEAT MPS 61788
2002 09 14.37229 23 25 50.69 +00 58 28.7 19.5   644 – Palomar Mountain/NEAT MPS 61788
2002 09 17.13200 23 23 27.92 +00 46 37.5 20.4   644 – Palomar Mountain/NEAT MPS 63588
2002 09 17.20682 23 23 24.01 +00 46 16.5 19.6   644 – Palomar Mountain/NEAT MPS 63588
2002 09 17.26895 23 23 20.72 +00 46 00.6 19.6   644 – Palomar Mountain/NEAT MPS 63588
2002 10 10.267850 23 05 45.146 -00 50 36.48 20.30 V 645 – Apache Point-Sloan Digital Sky Survey MPS 79643
2002 10 10.271322 23 05 45.020 -00 50 37.22 21.11   645 – Apache Point-Sloan Digital Sky Survey MPS 79643
2003 12 04.33318 06 50 48.80 +29 19 58.8 19.0   704 – Lincoln Laboratory ETS, New Mexico MPS 92630
2003 12 04.34548 06 50 48.31 +29 19 59.3 19.1   704 – Lincoln Laboratory ETS, New Mexico MPS 92630
2003 12 04.35754 06 50 47.79 +29 19 59.5 19.2   704 – Lincoln Laboratory ETS, New Mexico MPS 92630
2003 12 04.36956 06 50 47.38 +29 20 01.1 19.1   704 – Lincoln Laboratory ETS, New Mexico MPS 92630
2003 12 04.38175 06 50 46.81 +29 20 01.0 18.8   704 – Lincoln Laboratory ETS, New Mexico MPS 92630
2003 12 18.34307 06 39 05.01 +29 26 12.8 18.6   704 – Lincoln Laboratory ETS, New Mexico MPS 93616
2003 12 18.35775 06 39 04.08 +29 26 12.6 19.1   704 – Lincoln Laboratory ETS, New Mexico MPS 93616
2003 12 18.37057 06 39 03.27 +29 26 12.8 18.7   704 – Lincoln Laboratory ETS, New Mexico MPS 93616
2003 12 18.38616 06 39 02.27 +29 26 11.7 18.6   704 – Lincoln Laboratory ETS, New Mexico MPS 93616
2003 12 18.39973 06 39 01.44 +29 26 12.3 19.1   704 – Lincoln Laboratory ETS, New Mexico MPS 93616
2003 12 23.27264 06 33 56.51 +29 24 34.7 18.1   704 – Lincoln Laboratory ETS, New Mexico MPS 94524
2003 12 23.28549 06 33 55.66 +29 24 34.1 18.4   704 – Lincoln Laboratory ETS, New Mexico MPS 94524
2003 12 23.29843 06 33 54.77 +29 24 34.0 18.3   704 – Lincoln Laboratory ETS, New Mexico MPS 94524
2003 12 23.31167 06 33 53.90 +29 24 33.6 18.4   704 – Lincoln Laboratory ETS, New Mexico MPS 94524
2003 12 23.32473 06 33 53.02 +29 24 33.1 18.5   704 – Lincoln Laboratory ETS, New Mexico MPS 94524
2003 12 28.26585 06 28 28.12 +29 20 18.0 18.0   704 – Lincoln Laboratory ETS, New Mexico MPS 95685
2003 12 28.27180 06 28 27.74 +29 20 17.3 18.3   704 – Lincoln Laboratory ETS, New Mexico MPS 95685
2003 12 28.27880 06 28 27.24 +29 20 17.1 18.2   704 – Lincoln Laboratory ETS, New Mexico MPS 95685
2003 12 28.28481 06 28 26.85 +29 20 16.3 18.6   704 – Lincoln Laboratory ETS, New Mexico MPS 95685
2003 12 28.29185 06 28 26.35 +29 20 16.1 18.1   704 – Lincoln Laboratory ETS, New Mexico MPS 95685
2003 12 28.29781 06 28 25.94 +29 20 15.3 18.6   704 – Lincoln Laboratory ETS, New Mexico MPS 95685
2003 12 28.30484 06 28 25.46 +29 20 15.4 18.2   704 – Lincoln Laboratory ETS, New Mexico MPS 95685
2003 12 28.31098 06 28 25.02 +29 20 14.4 18.5   704 – Lincoln Laboratory ETS, New Mexico MPS 95685
2003 12 28.31798 06 28 24.53 +29 20 14.5 18.2   704 – Lincoln Laboratory ETS, New Mexico MPS 95685
2003 12 28.32442 06 28 24.09 +29 20 13.8 18.6   704 – Lincoln Laboratory ETS, New Mexico MPS 95685
2003 12 29.26994 06 27 21.35 +29 19 05.9 18.4   704 – Lincoln Laboratory ETS, New Mexico MPS 95685
2003 12 29.31374 06 27 18.30 +29 19 02.9 19.2   704 – Lincoln Laboratory ETS, New Mexico MPS 95685
2003 12 29.32737 06 27 17.29 +29 19 01.6 19.1   704 – Lincoln Laboratory ETS, New Mexico MPS 95685
2003 12 30.27432 06 26 14.42 +29 17 47.7 18.1   704 – Lincoln Laboratory ETS, New Mexico MPS 95685
2003 12 30.28640 06 26 13.60 +29 17 46.6 18.0   704 – Lincoln Laboratory ETS, New Mexico MPS 95685
2003 12 30.29846 06 26 12.76 +29 17 45.6 18.3   704 – Lincoln Laboratory ETS, New Mexico MPS 95685
2004 01 22.23922 06 04 17.87 +28 20 48.5 19.2   704 – Lincoln Laboratory ETS, New Mexico MPS 96895
2004 01 22.25201 06 04 17.35 +28 20 45.7 19.0   704 – Lincoln Laboratory ETS, New Mexico MPS 96895
2004 01 22.26502 06 04 16.81 +28 20 43.1 19.5   704 – Lincoln Laboratory ETS, New Mexico MPS 96895
2004 03 18.16899 06 20 01.87 +25 15 24.1 19.8   704 – Lincoln Laboratory ETS, New Mexico MPS 101025
2004 03 18.18016 06 20 02.55 +25 15 22.2 19.8   704 – Lincoln Laboratory ETS, New Mexico MPS 101025
2004 03 18.19116 06 20 03.30 +25 15 20.5 20.0   704 – Lincoln Laboratory ETS, New Mexico MPS 101025
2005 02 15.31937 16 07 08.06 -26 15 51.8 19.7 R 809 – European Southern Observatory, La Silla MPS 133068
2006 07 18.39237 22 26 46.82 -09 09 23.8 20.3 V G96 – Mt. Lemmon Survey MPS 174807
2006 07 18.39682 22 26 46.64 -09 09 23.6 20.3 V G96 – Mt. Lemmon Survey MPS 174807
2006 07 18.40140 22 26 46.50 -09 09 24.0 20.1 V G96 – Mt. Lemmon Survey MPS 174807
2006 07 18.40580 22 26 46.39 -09 09 24.1 20.6 V G96 – Mt. Lemmon Survey MPS 174807
2006 08 13.79729 22 08 37.49 -10 12 32.6 20.6 R D35 – Lulin Observatory MPS 175673
2006 08 13.81024 22 08 36.78 -10 12 35.1 21.1 R D35 – Lulin Observatory MPS 175673
